When you browse on this site, cookies collect data to enhance your experience and personalize the content and advertising you see.
Visit our Privacy Policy to learn more. By continuing to use the site, you agree to this use of cookies and data.
  • In Österreich
  • Länderverzeichnis
  • Für 7 Tage
  • Wassertemperatur
  • Satellitenkarten
  • Wetterkarte
  • News
  • Widgets
  • user-avatar
    Anmelden

    Stündliche Wetter Kipungo

    Heute, 16 Januar, Mittwoch

    Zeit Temperatur Niederschläge Wind Luftdruck Luftfeuchtigkeit
    00:00 +19°C° 0.1 mm 2 m/S 653 mmHg 78%
    01:00 +19°C° 0 mm 2 m/S 653 mmHg 80%
    02:00 +18°C° 0.3 mm 2 m/S 653 mmHg 82%
    03:00 +18°C° 0.3 mm 2 m/S 653 mmHg 84%
    04:00 +18°C° 0.3 mm 2 m/S 653 mmHg 86%
    05:00 +18°C° 1.6 mm 2 m/S 653 mmHg 88%
    06:00 +17°C° 1.6 mm 2 m/S 653 mmHg 89%
    07:00 +17°C° 1.6 mm 2 m/S 653 mmHg 91%
    08:00 +18°C° 0.3 mm 2 m/S 654 mmHg 84%
    09:00 +19°C° 0.3 mm 2 m/S 654 mmHg 77%
    10:00 +21°C° 0.3 mm 3 m/S 655 mmHg 70%
    11:00 +24°C° 0 mm 2 m/S 655 mmHg 61%
    12:00 +26°C° 0 mm 2 m/S 655 mmHg 52%
    13:00 +28°C° 0 mm 2 m/S 655 mmHg 44%
    14:00 +27°C° 0 mm 2 m/S 655 mmHg 46%
    15:00 +27°C° 0 mm 3 m/S 654 mmHg 49%
    16:00 +26°C° 0 mm 3 m/S 654 mmHg 51%
    17:00 +24°C° 0 mm 3 m/S 653 mmHg 56%
    18:00 +23°C° 0 mm 2 m/S 653 mmHg 61%
    19:00 +20°C° 0 mm 2 m/S 652 mmHg 66%
    20:00 +19°C° 0 mm 2 m/S 653 mmHg 69%
    21:00 +18°C° 0 mm 2 m/S 653 mmHg 72%
    22:00 +17°C° 0 mm 2 m/S 653 mmHg 76%
    23:00 +18°C° 0 mm 2 m/S 653 mmHg 74%

    Morgen, 17 Januar, Donnerstag

    Zeit Temperatur Niederschläge Wind Luftdruck Luftfeuchtigkeit
    00:00 +19°C° 0 mm 1 m/S 653 mmHg 72%
    01:00 +19°C° 0 mm 1 m/S 653 mmHg 70%
    02:00 +19°C° 0.1 mm 1 m/S 653 mmHg 72%
    03:00 +17°C° 0.1 mm 0 m/S 653 mmHg 73%
    04:00 +17°C° 0.1 mm 0 m/S 653 mmHg 75%
    05:00 +19°C° 0.2 mm 1 m/S 653 mmHg 76%
    06:00 +19°C° 0.2 mm 1 m/S 653 mmHg 77%
    07:00 +19°C° 0.2 mm 1 m/S 653 mmHg 79%
    08:00 +21°C° 0 mm 1 m/S 654 mmHg 68%
    09:00 +24°C° 0 mm 1 m/S 655 mmHg 58%
    10:00 +26°C° 0 mm 1 m/S 655 mmHg 47%
    11:00 +28°C° 0 mm 1 m/S 655 mmHg 42%
    12:00 +30°C° 0 mm 2 m/S 655 mmHg 36%
    13:00 +32°C° 0 mm 2 m/S 655 mmHg 30%
    14:00 +30°C° 0 mm 2 m/S 655 mmHg 33%
    15:00 +29°C° 0 mm 2 m/S 654 mmHg 37%
    16:00 +28°C° 0 mm 2 m/S 653 mmHg 40%
    17:00 +26°C° 0 mm 2 m/S 653 mmHg 43%
    18:00 +25°C° 0 mm 1 m/S 653 mmHg 47%
    19:00 +23°C° 0 mm 1 m/S 653 mmHg 50%
    20:00 +22°C° 0 mm 1 m/S 653 mmHg 51%
    21:00 +21°C° 0 mm 1 m/S 653 mmHg 52%
    22:00 +20°C° 0 mm 1 m/S 654 mmHg 54%
    23:00 +20°C° 0 mm 1 m/S 653 mmHg 54%

    übermorgen, 18 Januar, Freitag

    Zeit Temperatur Niederschläge Wind Luftdruck Luftfeuchtigkeit
    00:00 +19°C° 0 mm 2 m/S 653 mmHg 55%
    01:00 +18°C° 0 mm 2 m/S 653 mmHg 56%
    02:00 +18°C° 0 mm 2 m/S 653 mmHg 57%
    03:00 +18°C° 0 mm 1 m/S 652 mmHg 57%
    04:00 +18°C° 0 mm 1 m/S 652 mmHg 58%
    05:00 +19°C° 0 mm 1 m/S 653 mmHg 56%
    06:00 +19°C° 0 mm 1 m/S 653 mmHg 54%
    07:00 +18°C° 0 mm 0 m/S 654 mmHg 53%
    08:00 +23°C° 0 mm 1 m/S 655 mmHg 46%
    09:00 +27°C° 0 mm 1 m/S 655 mmHg 39%
    10:00 +30°C° 0 mm 1 m/S 656 mmHg 32%
    11:00 +31°C° 0 mm 1 m/S 656 mmHg 30%
    12:00 +33°C° 0 mm 1 m/S 656 mmHg 28%
    13:00 +35°C° 0 mm 1 m/S 655 mmHg 26%
    14:00 +33°C° 0 mm 1 m/S 654 mmHg 28%
    15:00 +32°C° 0 mm 2 m/S 653 mmHg 30%
    16:00 +31°C° 0 mm 2 m/S 652 mmHg 32%
    17:00 +30°C° 0 mm 2 m/S 653 mmHg 35%
    18:00 +28°C° 0 mm 2 m/S 653 mmHg 38%
    19:00 +27°C° 0 mm 2 m/S 653 mmHg 41%
    20:00 +26°C° 0 mm 2 m/S 653 mmHg 41%
    21:00 +25°C° 0 mm 2 m/S 653 mmHg 42%
    22:00 +23°C° 0 mm 2 m/S 654 mmHg 42%
    23:00 +21°C° 0 mm 2 m/S 653 mmHg 45%

    19 Januar, Samstag

    Zeit Temperatur Niederschläge Wind Luftdruck Luftfeuchtigkeit
    00:00 +20°C° 0 mm 2 m/S 653 mmHg 48%
    01:00 +19°C° 0 mm 2 m/S 653 mmHg 50%
    02:00 +19°C° 0 mm 2 m/S 652 mmHg 51%
    03:00 +18°C° 0 mm 2 m/S 652 mmHg 53%
    04:00 +18°C° 0 mm 2 m/S 652 mmHg 54%
    05:00 +19°C° 0 mm 1 m/S 652 mmHg 53%
    06:00 +20°C° 0 mm 1 m/S 653 mmHg 51%
    07:00 +21°C° 0 mm 1 m/S 654 mmHg 50%
    08:00 +25°C° 0 mm 1 m/S 655 mmHg 42%
    09:00 +28°C° 0 mm 1 m/S 656 mmHg 35%
    10:00 +32°C° 0 mm 1 m/S 657 mmHg 27%
    11:00 +34°C° 0 mm 1 m/S 656 mmHg 25%
    12:00 +37°C° 0 mm 1 m/S 656 mmHg 23%
    13:00 +37°C° 0 mm 0 m/S 656 mmHg 21%
    14:00 +37°C° 0 mm 1 m/S 655 mmHg 24%
    15:00 +35°C° 0 mm 1 m/S 654 mmHg 26%
    16:00 +33°C° 0 mm 1 m/S 653 mmHg 28%
    17:00 +31°C° 0 mm 2 m/S 653 mmHg 30%
    18:00 +30°C° 0 mm 2 m/S 653 mmHg 33%
    19:00 +29°C° 0 mm 2 m/S 654 mmHg 35%
    20:00 +27°C° 0 mm 3 m/S 654 mmHg 39%
    21:00 +26°C° 0 mm 3 m/S 654 mmHg 44%
    22:00 +24°C° 0 mm 3 m/S 654 mmHg 49%
    23:00 +24°C° 0 mm 3 m/S 654 mmHg 53%

    20 Januar, Sonntag

    Zeit Temperatur Niederschläge Wind Luftdruck Luftfeuchtigkeit
    00:00 +22°C° 0 mm 3 m/S 653 mmHg 57%
    01:00 +21°C° 0 mm 3 m/S 653 mmHg 61%
    02:00 +20°C° 0 mm 2 m/S 653 mmHg 62%
    03:00 +20°C° 0 mm 2 m/S 653 mmHg 64%
    04:00 +20°C° 0 mm 1 m/S 653 mmHg 65%
    05:00 +21°C° 0 mm 1 m/S 653 mmHg 64%
    06:00 +21°C° 0 mm 1 m/S 654 mmHg 62%
    07:00 +20°C° 0 mm 0 m/S 655 mmHg 60%
    08:00 +24°C° 0 mm 0 m/S 656 mmHg 50%
    09:00 +27°C° 0 mm 0 m/S 657 mmHg 41%
    10:00 +31°C° 0 mm 0 m/S 658 mmHg 31%
    11:00 +32°C° 0 mm 0 m/S 657 mmHg 30%
    12:00 +34°C° 0 mm 1 m/S 656 mmHg 30%
    13:00 +34°C° 0 mm 1 m/S 655 mmHg 29%
    14:00 +34°C° 0 mm 1 m/S 655 mmHg 30%
    15:00 +33°C° 0 mm 1 m/S 654 mmHg 31%
    16:00 +32°C° 0 mm 1 m/S 654 mmHg 31%
    17:00 +30°C° 0 mm 1 m/S 654 mmHg 36%
    18:00 +29°C° 0 mm 2 m/S 654 mmHg 41%
    19:00 +27°C° 0 mm 2 m/S 654 mmHg 46%
    20:00 +26°C° 0 mm 2 m/S 654 mmHg 49%
    21:00 +25°C° 0 mm 2 m/S 654 mmHg 52%
    22:00 +24°C° 0 mm 2 m/S 655 mmHg 55%
    23:00 +24°C° 0 mm 2 m/S 654 mmHg 56%

    21 Januar, Montag

    Zeit Temperatur Niederschläge Wind Luftdruck Luftfeuchtigkeit
    00:00 +23°C° 0 mm 2 m/S 654 mmHg 57%
    01:00 +23°C° 0 mm 2 m/S 654 mmHg 58%
    02:00 +21°C° 0 mm 2 m/S 654 mmHg 61%
    03:00 +21°C° 0 mm 2 m/S 653 mmHg 63%
    04:00 +21°C° 0 mm 1 m/S 653 mmHg 66%
    05:00 +22°C° 0 mm 1 m/S 654 mmHg 64%
    06:00 +21°C° 0 mm 2 m/S 654 mmHg 62%
    07:00 +21°C° 0 mm 2 m/S 655 mmHg 61%
    08:00 +25°C° 0 mm 2 m/S 655 mmHg 52%
    09:00 +28°C° 0 mm 1 m/S 656 mmHg 43%
    10:00 +31°C° 0 mm 1 m/S 657 mmHg 34%
    11:00 +31°C° 0 mm 1 m/S 656 mmHg 34%
    12:00 +31°C° 0 mm 1 m/S 656 mmHg 34%
    13:00 +32°C° 0 mm 2 m/S 655 mmHg 35%
    14:00 +32°C° 0 mm 2 m/S 654 mmHg 34%
    15:00 +32°C° 0 mm 2 m/S 654 mmHg 34%
    16:00 +32°C° 0 mm 2 m/S 653 mmHg 33%
    17:00 +30°C° 0 mm 2 m/S 653 mmHg 38%
    18:00 +28°C° 0 mm 2 m/S 653 mmHg 43%
    19:00 +27°C° 0 mm 2 m/S 653 mmHg 47%
    20:00 +25°C° 0 mm 2 m/S 653 mmHg 53%
    21:00 +24°C° 0 mm 2 m/S 653 mmHg 58%
    22:00 +21°C° 0 mm 2 m/S 654 mmHg 64%
    23:00 +21°C° 0 mm 2 m/S 653 mmHg 67%
    Mehr zeigen